Home > Products > State Listing > Washington Data
Latest:
 RWRWA |
  [top]

000
ASUS46 KSEW 312110
RWRWA

WASHINGTON REGIONAL WEATHER ROUNDUP
NATIONAL WEATHER SERVICE SEATTLE WA
200 PM PDT TUE MAY 31 2016

NOTE:"FAIR" INDICATES FEW OR NO CLOUDS BELOW 12,000 FEET WITH NO
SIGNIFICANT WEATHER AND/OR OBSTRUCTIONS TO VISIBILITY.

WAZ505-507>509-312200-
SEATTLE, TACOMA, EVERETT, AND VICINITY

CITY           SKY/WX    TMP DP  RH WIND       PRES   REMARKS
EVERETT        SUNNY     71  49  45 N6        30.06F
BOEING FIELD   MOSUNNY   75  48  38 W7        30.03F
RENTON         SUNNY     75  49  39 NW7       30.02F
SEATAC AIRPORT PTSUNNY   76  50  40 NW8       30.05F
JBLM-MCCHORD   SUNNY     77  49  37 VRB1      30.03F
PUYALLUP       FAIR      77  48  36 CALM      30.04F
BREMERTON      SUNNY     77  48  36 NE5       30.07F
JBLM-FT LEWIS  SUNNY     77  50  39 VRB2      30.03F
TACOMA NARROWS SUNNY     75  46  35 VRB7      30.04F
$$

WAZ001-503-506-510-514-515-312200-
NORTH INTERIOR

CITY           SKY/WX    TMP DP  RH WIND       PRES   REMARKS
BELLINGHAM     MOSUNNY   73  54  51 NW6       30.05F
FRIDAY HARBOR  MOSUNNY   73  49  42 VRB7      30.07F
EASTSOUND      MOSUNNY   64  50  59 N5        30.05F
PORT ANGELES   MOSUNNY   72  44  36 VRB6      30.07F
EDIZ HOOK      FAIR      63  49  61 E3        30.07F
PORT TOWNSEND  FAIR      72  48  43 NW7G13    30.06F
NAS WHIDBEY    PTSUNNY   63  52  67 W8        30.10F
ARLINGTON      SUNNY     73  52  46 N9        30.05F
BURLINGTON     SUNNY     70  54  56 W7        30.05F
$$

WAZ020-022-039-040-504-511-512-312200-
SOUTHWEST INTERIOR

CITY           SKY/WX    TMP DP  RH WIND       PRES   REMARKS
SHELTON        SUNNY     78  44  29 CALM      30.01F
OLYMPIA        SUNNY     77  44  30 NW7       30.03F
CHEHALIS       FAIR      82  50  32 CALM      30.02F
KELSO          SUNNY     82  46  28 NW5       30.00F
VANCOUVER      SUNNY     82  53  36 W9        29.96F
SCAPPOOSE, OR  SUNNY     84  43  23 N5        29.97F
PORTLAND, OR   MOSUNNY   83  50  31 W8        29.97F
$$

WAZ021-516-517-312200-
WASHINGTON COAST

CITY           SKY/WX    TMP DP  RH WIND       PRES   REMARKS
FORKS          MOSUNNY   67  49  52 W12       30.06F
HOQUIAM        SUNNY     72  52  49 W10       30.04F HAZE
ASTORIA, OR    SUNNY     77  53  43 NW15      30.01F
$$

WAZ019-023-024-040-518-519-312200-
CASCADE MOUNTAINS AND COLUMBIA GORGE

CITY           SKY/WX    TMP DP  RH WIND       PRES   REMARKS
STAMPEDE PASS  SUNNY     71  37  28 VRB5      30.14F
TROUTDALE, OR  SUNNY     82  45  27 E7        29.96F
THE DALLES, OR SUNNY     85  26  11 VRB7      30.01F
$$

WAZ026-027-041>044-520-521-312200-
EAST SLOPES

CITY           SKY/WX    TMP DP  RH WIND       PRES   REMARKS
OMAK           SUNNY     79  32  18 SW14      30.06F
WENATCHEE      SUNNY     79  33  19 SE12      30.05F
ELLENSBURG     SUNNY     80  35  19 CALM      30.07F
YAKIMA         SUNNY     82  32  16 E7        30.07F
$$

WAZ028-034-035-312200-
COLUMBIA BASIN

CITY           SKY/WX    TMP DP  RH WIND       PRES   REMARKS
EPHRATA        SUNNY     78  31  17 VRB3      30.07F
MOSES LAKE     SUNNY     80  30  16 W12       30.08F
PASCO          SUNNY     82  42  24 MISG      30.05F
HERMISTON, OR  SUNNY     84  36  18 N8        30.03F
$$

WAZ036>038-312200-
NORTHEAST WASHINGTON

CITY           SKY/WX    TMP DP  RH WIND       PRES   REMARKS
SPOKANE GEIGER MOSUNNY   75  32  20 NW7       30.11F
SPOKANE FELTS  MOSUNNY   76  37  24 W7        30.11F
FAIRCHILD AFB  SUNNY     73  35  25 NW3       30.12F
COEURDALENE,ID SUNNY     75  39  27 NW6       30.09F
DEER PARK      SUNNY     74  32  21 NW7       30.12F
$$

WAZ029>033-312200-
SOUTHEAST WASHINGTON

CITY           SKY/WX    TMP DP  RH WIND       PRES   REMARKS
PULLMAN        SUNNY     72  37  28 VRB3      30.13F
LEWISTON, ID   SUNNY     78  33  19 VRB3      30.08F
WALLA WALLA    SUNNY     80  38  22 VRB5      30.05F
PENDLETON, OR  SUNNY     80  33  18 VRB5      30.04F
$$





000
ASUS46 KSEW 311810
RWRWA

WASHINGTON REGIONAL WEATHER ROUNDUP
NATIONAL WEATHER SERVICE SEATTLE WA
1100 AM PDT TUE MAY 31 2016

NOTE:"FAIR" INDICATES FEW OR NO CLOUDS BELOW 12,000 FEET WITH NO
SIGNIFICANT WEATHER AND/OR OBSTRUCTIONS TO VISIBILITY.

WAZ505-507>509-311900-
SEATTLE, TACOMA, EVERETT, AND VICINITY

CITY           SKY/WX    TMP DP  RH WIND       PRES   REMARKS
EVERETT        MOSUNNY   65  49  56 VRB5      30.10F
6HR MIN TEMP:  50; 6HR MAX TEMP:  66;

BOEING FIELD   SUNNY     69  50  50 CALM      30.08F
6HR MIN TEMP:  54; 6HR MAX TEMP:  69;

RENTON         SUNNY     67  51  56 NW9       30.08F
6HR MIN TEMP:  50; 6HR MAX TEMP:  67;

SEATAC AIRPORT MOSUNNY   69  50  50 NW7       30.10F
6HR MIN TEMP:  52; 6HR MAX TEMP:  69;

JBLM-MCCHORD   MOSUNNY   69  48  48 N6        30.08F
6HR MIN TEMP:  43; 6HR MAX TEMP:  69;

PUYALLUP       FAIR      70  48  46 CALM      30.09F
BREMERTON      SUNNY     66  48  52 NE8       30.12F
6HR MIN TEMP:  46; 6HR MAX TEMP:  68;

JBLM-FT LEWIS  PTSUNNY   69  48  47 NW7       30.08F
6HR MIN TEMP:  45; 6HR MAX TEMP:  69;

TACOMA NARROWS SUNNY     66  47  50 VRB5      30.10F
6HR MIN TEMP:  50; 6HR MAX TEMP:  67;

$$

WAZ001-503-506-510-514-515-311900-
NORTH INTERIOR

CITY           SKY/WX    TMP DP  RH WIND       PRES   REMARKS
BELLINGHAM     SUNNY     68  51  54 NE3       30.09F
6HR MIN TEMP:  46; 6HR MAX TEMP:  68; 6HR PCP: TRACE;

FRIDAY HARBOR  MOSUNNY   67  50  54 CALM      30.12F
6HR MIN TEMP:  45; 6HR MAX TEMP:  67;

EASTSOUND      MOSUNNY   59  50  72 N5        30.10F
PORT ANGELES   MOSUNNY   65  47  52 VRB5      30.11F
6HR MIN TEMP:  47; 6HR MAX TEMP:  65;

EDIZ HOOK      FAIR      60  47  62 S6        30.11F
6HR MIN TEMP:  50; 6HR MAX TEMP:  61;

PORT TOWNSEND  FAIR      66  50  55 SW7       30.10F
NAS WHIDBEY    PTSUNNY   63  52  67 W6        30.14F
6HR MIN TEMP:  47; 6HR MAX TEMP:  63;

ARLINGTON      MOSUNNY   68  48  49 CALM      30.10F
6HR MIN TEMP:  43; 6HR MAX TEMP:  68;

BURLINGTON     SUNNY     66  52  59 NE5       30.09F
$$

WAZ020-022-039-040-504-511-512-311900-
SOUTHWEST INTERIOR

CITY           SKY/WX    TMP DP  RH WIND       PRES   REMARKS
SHELTON        SUNNY     70  46  42 VRB5      30.07F
6HR MIN TEMP:  43; 6HR MAX TEMP:  70;

OLYMPIA        SUNNY     68  46  45 N7        30.09F
6HR MIN TEMP:  43; 6HR MAX TEMP:  68;

CHEHALIS       FAIR      72  50  46 VRB7      30.08F
KELSO          SUNNY     70  48  46 NW8       30.09F
6HR MIN TEMP:  48; 6HR MAX TEMP:  70;

VANCOUVER      SUNNY     69  51  52 W7        30.03F
6HR MIN TEMP:  49; 6HR MAX TEMP:  70;

SCAPPOOSE, OR  SUNNY     72  53  51 CALM      30.03F
6HR MIN TEMP:  48; 6HR MAX TEMP:  72;

PORTLAND, OR   MOSUNNY   70  48  45 W5        30.03F
6HR MIN TEMP:  53; 6HR MAX TEMP:  70;

$$

WAZ021-516-517-311900-
WASHINGTON COAST

CITY           SKY/WX    TMP DP  RH WIND       PRES   REMARKS
FORKS          PTSUNNY   67  48  50 S5        30.09F
6HR MIN TEMP:  45; 6HR MAX TEMP:  69;

HOQUIAM        SUNNY     68  52  56 E8        30.07F HAZE
6HR MIN TEMP:  48; 6HR MAX TEMP:  68;

ASTORIA, OR    SUNNY     72  47  40 N8        30.04F
6HR MIN TEMP:  47; 6HR MAX TEMP:  72;

$$

WAZ019-023-024-040-518-519-311900-
CASCADE MOUNTAINS AND COLUMBIA GORGE

CITY           SKY/WX    TMP DP  RH WIND       PRES   REMARKS
STAMPEDE PASS  SUNNY     65  38  36 VRB5      30.17F
6HR MIN TEMP:  43; 6HR MAX TEMP:  65;

TROUTDALE, OR  SUNNY     72  49  44 CALM      30.02F
6HR MIN TEMP:  49; 6HR MAX TEMP:  72;

THE DALLES, OR SUNNY     71  37  28 SW5       30.09F
6HR MIN TEMP:  46; 6HR MAX TEMP:  72;

$$

WAZ026-027-041>044-520-521-311900-
EAST SLOPES

CITY           SKY/WX    TMP DP  RH WIND       PRES   REMARKS
OMAK           MOSUNNY   70  35  27 SE3       30.14F
6HR MIN TEMP:  52; 6HR MAX TEMP:  71;

WENATCHEE      SUNNY     71  38  29 CALM      30.12F
6HR MIN TEMP:  53; 6HR MAX TEMP:  71;

ELLENSBURG     SUNNY     73  42  32 VRB3      30.14F
6HR MIN TEMP:  43; 6HR MAX TEMP:  73;

YAKIMA         SUNNY     76  40  27 VRB3      30.12F
6HR MIN TEMP:  44; 6HR MAX TEMP:  76;

$$

WAZ028-034-035-311900-
COLUMBIA BASIN

CITY           SKY/WX    TMP DP  RH WIND       PRES   REMARKS
EPHRATA        SUNNY     73  35  25 SE6       30.12F
6HR MIN TEMP:  47; 6HR MAX TEMP:  73;

MOSES LAKE     SUNNY     73  36  25 SE5       30.13F
PASCO          SUNNY     72  43  35 N6        30.12F
6HR MIN TEMP:  43; 6HR MAX TEMP:  72;

HERMISTON, OR  SUNNY     74  40  29 N8        30.10F
6HR MIN TEMP:  39; 6HR MAX TEMP:  74;

$$

WAZ036>038-311900-
NORTHEAST WASHINGTON

CITY           SKY/WX    TMP DP  RH WIND       PRES   REMARKS
SPOKANE GEIGER MOSUNNY   68  38  33 NE7       30.16F
6HR MIN TEMP:  48; 6HR MAX TEMP:  68;

SPOKANE FELTS  SUNNY     70  42  36 CALM      30.16F
6HR MIN TEMP:  45; 6HR MAX TEMP:  70;

FAIRCHILD AFB  SUNNY     67  39  36 E5        30.16F
6HR MIN TEMP:  45; 6HR MAX TEMP:  67;

COEURDALENE,ID SUNNY     66  41  39 N5        30.14F
6HR MIN TEMP:  41; 6HR MAX TEMP:  66;

DEER PARK      SUNNY     68  36  30 VRB5      30.17F
6HR MIN TEMP:  41; 6HR MAX TEMP:  68;

$$

WAZ029>033-311900-
SOUTHEAST WASHINGTON

CITY           SKY/WX    TMP DP  RH WIND       PRES   REMARKS
PULLMAN        SUNNY     67  40  37 CALM      30.18S
6HR MIN TEMP:  37; 6HR MAX TEMP:  68;

LEWISTON, ID   SUNNY     69  39  33 N5        30.14F
6HR MIN TEMP:  46; 6HR MAX TEMP:  69;

WALLA WALLA    SUNNY     72  39  30 N3        30.11F
6HR MIN TEMP:  47; 6HR MAX TEMP:  72;

PENDLETON, OR  SUNNY     74  32  21 N8        30.10F
6HR MIN TEMP:  44; 6HR MAX TEMP:  74;

$$





000
ASUS46 KSEW 311310
RWRWA

WASHINGTON REGIONAL WEATHER ROUNDUP
NATIONAL WEATHER SERVICE SEATTLE WA
600 AM PDT TUE MAY 31 2016

NOTE:"FAIR" INDICATES FEW OR NO CLOUDS BELOW 12,000 FEET WITH NO
SIGNIFICANT WEATHER AND/OR OBSTRUCTIONS TO VISIBILITY.

WAZ505-507>509-311400-
SEATTLE, TACOMA, EVERETT, AND VICINITY

CITY           SKY/WX    TMP DP  RH WIND       PRES   REMARKS
EVERETT        CLEAR     51  44  77 N5        30.15S
BOEING FIELD   MOCLDY    55  49  80 CALM      30.14F
RENTON         PTCLDY    50  47  89 CALM      30.13F
SEATAC AIRPORT PTCLDY    55  47  74 NE6       30.14F
JBLM-MCCHORD   MOCLDY    45  45  99 CALM      30.13F
PUYALLUP       FAIR      46  46 100 CALM      30.13F
BREMERTON      MOCLDY    50  45  81 NE6       30.15S
JBLM-FT LEWIS  MOCLDY    46  43  90 SE5       30.13S
TACOMA NARROWS MOCLDY    52  45  77 CALM      30.14S
$$

WAZ001-503-506-510-514-515-311400-
NORTH INTERIOR

CITY           SKY/WX    TMP DP  RH WIND       PRES   REMARKS
BELLINGHAM     PTCLDY    47  45  93 CALM      30.14F
FRIDAY HARBOR  PTCLDY    46  43  89 CALM      30.15F
EASTSOUND      PTCLDY    50  46  87 CALM      30.13F
PORT ANGELES   MOCLDY    48  43  82 SW5       30.14F
EDIZ HOOK      FAIR      51  47  85 CALM      30.14F
PORT TOWNSEND  FAIR      45  45 100 CALM      30.15F
NAS WHIDBEY    MOCLDY    48  45  89 VRB3      30.18F
ARLINGTON      CLEAR     45  37  76 CALM      30.17S
BURLINGTON     CLEAR     52  48  87 CALM      30.15S
$$

WAZ020-022-039-040-504-511-512-311400-
SOUTHWEST INTERIOR

CITY           SKY/WX    TMP DP  RH WIND       PRES   REMARKS
SHELTON        MOCLDY    44  41  89 CALM      30.12S
OLYMPIA        MOCLDY    44  40  85 CALM      30.13F
CHEHALIS       FAIR      46  45  93 CALM      30.13S
KELSO          PTCLDY    48  39  71 CALM      30.13F
VANCOUVER      CLEAR     50  42  74 CALM      30.08S
SCAPPOOSE, OR  PTCLDY    49  44  83 CALM      30.07F
PORTLAND, OR   MOCLDY    54  43  66 NW5       30.08S
$$

WAZ021-516-517-311400-
WASHINGTON COAST

CITY           SKY/WX    TMP DP  RH WIND       PRES   REMARKS
FORKS          MOCLDY    46  44  93 CALM      30.12S
HOQUIAM        MOCLDY    50  48  93 NE3       30.11F FOG
ASTORIA, OR    MOCLDY    47  45  93 SE5       30.07F
$$

WAZ019-023-024-040-518-519-311400-
CASCADE MOUNTAINS AND COLUMBIA GORGE

CITY           SKY/WX    TMP DP  RH WIND       PRES   REMARKS
STAMPEDE PASS  CLEAR     44  36  73 NE3       30.18S
TROUTDALE, OR  CLEAR     52  47  83 CALM      30.07F
THE DALLES, OR CLEAR     47  37  68 CALM      30.13S
$$

WAZ026-027-041>044-520-521-311400-
EAST SLOPES

CITY           SKY/WX    TMP DP  RH WIND       PRES   REMARKS
OMAK           CLEAR     54  37  52 N13G24    30.18R
WENATCHEE      PTCLDY    54  39  57 W10       30.16S
ELLENSBURG     CLEAR     43  37  79 CALM      30.16S
YAKIMA         CLEAR     48  37  65 W7        30.15S
$$

WAZ028-034-035-311400-
COLUMBIA BASIN

CITY           SKY/WX    TMP DP  RH WIND       PRES   REMARKS
EPHRATA        PTCLDY    50  37  61 NE6       30.15R
MOSES LAKE     CLEAR     46  34  62 N7        30.15S
PASCO          CLEAR     44  40  85 CALM      30.15R
HERMISTON, OR  CLEAR     43  38  82 SE3       30.13S
$$

WAZ036>038-311400-
NORTHEAST WASHINGTON

CITY           SKY/WX    TMP DP  RH WIND       PRES   REMARKS
SPOKANE GEIGER PTCLDY    49  38  65 E6        30.18R
SPOKANE FELTS  CLEAR     46  40  79 CALM      30.19R
FAIRCHILD AFB  CLEAR     45  38  76 E3        30.17R
COEURDALENE,ID CLEAR     46  37  71 NE6       30.17S
DEER PARK      CLEAR     46  39  76 MISG      30.19R
$$

WAZ029>033-311400-
SOUTHEAST WASHINGTON

CITY           SKY/WX    TMP DP  RH WIND       PRES   REMARKS
PULLMAN        CLEAR     42  35  76 CALM      30.19S
LEWISTON, ID   CLEAR     49  38  65 CALM      30.18R
WALLA WALLA    CLEAR     48  37  65 E5        30.13S
PENDLETON, OR  CLEAR     46  37  71 E8        30.13S
$$





000
ASUS46 KSEW 311210
RWRWA

WASHINGTON REGIONAL WEATHER ROUNDUP
NATIONAL WEATHER SERVICE SEATTLE WA
500 AM PDT TUE MAY 31 2016

NOTE:"FAIR" INDICATES FEW OR NO CLOUDS BELOW 12,000 FEET WITH NO
SIGNIFICANT WEATHER AND/OR OBSTRUCTIONS TO VISIBILITY.

WAZ505-507>509-311300-
SEATTLE, TACOMA, EVERETT, AND VICINITY

CITY           SKY/WX    TMP DP  RH WIND       PRES   REMARKS
EVERETT        CLEAR     51  44  77 CALM      30.15S
6HR MIN TEMP:  50; 6HR MAX TEMP:  57;

BOEING FIELD   CLEAR     55  49  80 CALM      30.15S
6HR MIN TEMP:  54; 6HR MAX TEMP:  63;

RENTON         CLEAR     51  47  86 CALM      30.14F
6HR MIN TEMP:  50; 6HR MAX TEMP:  60;

SEATAC AIRPORT PTCLDY    53  48  83 N3        30.15S
6HR MIN TEMP:  53; 6HR MAX TEMP:  61;

JBLM-MCCHORD   PTCLDY    45  45  99 S1        30.14S
6HR MIN TEMP:  44; 6HR MAX TEMP:  59;

PUYALLUP       FAIR      45  45 100 CALM      30.14S
BREMERTON      PTCLDY    46  43  87 CALM      30.16F
6HR MIN TEMP:  46; 6HR MAX TEMP:  54;

JBLM-FT LEWIS  PTCLDY    46  42  86 SE3       30.13F
6HR MIN TEMP:  45; 6HR MAX TEMP:  57;

TACOMA NARROWS PTCLDY    51  43  74 CALM      30.14S
6HR MIN TEMP:  51; 6HR MAX TEMP:  60;

$$

WAZ001-503-506-510-514-515-311300-
NORTH INTERIOR

CITY           SKY/WX    TMP DP  RH WIND       PRES   REMARKS
BELLINGHAM     PTCLDY    49  47  93 NW3       30.15S
6HR MIN TEMP:  47; 6HR MAX TEMP:  53;

FRIDAY HARBOR  MOCLDY    46  43  89 CALM      30.16F
6HR MIN TEMP:  44; 6HR MAX TEMP:  50;

EASTSOUND      PTCLDY    48  45  87 S3        30.14S
PORT ANGELES   CLOUDY    47  42  83 CALM      30.16S
6HR MIN TEMP:  46; 6HR MAX TEMP:  52;

EDIZ HOOK      FAIR      51  46  82 CALM      30.16F
6HR MIN TEMP:  50; 6HR MAX TEMP:  55;

PORT TOWNSEND  FAIR      45  45 100 CALM      30.16S
NAS WHIDBEY    PTCLDY    49  46  90 N3        30.19S
6HR MIN TEMP:  46; 6HR MAX TEMP:  54;

ARLINGTON      CLEAR     45  37  76 N3        30.17S
6HR MIN TEMP:  45; 6HR MAX TEMP:  54;

BURLINGTON     CLEAR     48  46  93 CALM      30.15F
$$

WAZ020-022-039-040-504-511-512-311300-
SOUTHWEST INTERIOR

CITY           SKY/WX    TMP DP  RH WIND       PRES   REMARKS
SHELTON        MOCLDY    44  41  89 CALM      30.12F
6HR MIN TEMP:  43; 6HR MAX TEMP:  54;

OLYMPIA        MOCLDY    46  41  82 CALM      30.14S
6HR MIN TEMP:  43; 6HR MAX TEMP:  60;

CHEHALIS       NOT AVBL
KELSO          PTCLDY    48  41  76 CALM      30.14S
6HR MIN TEMP:  48; 6HR MAX TEMP:  61;

VANCOUVER      CLEAR     50  42  74 CALM      30.08F
6HR MIN TEMP:  49; 6HR MAX TEMP:  64;

SCAPPOOSE, OR  PTCLDY    54  41  61 N5        30.08S
6HR MIN TEMP:  54; 6HR MAX TEMP:  65;

PORTLAND, OR   PTCLDY    55  44  66 CALM      30.08F
6HR MIN TEMP:  54; 6HR MAX TEMP:  66;

$$

WAZ021-516-517-311300-
WASHINGTON COAST

CITY           SKY/WX    TMP DP  RH WIND       PRES   REMARKS
FORKS          CLOUDY    46  44  93 CALM      30.12F
6HR MIN TEMP:  45; 6HR MAX TEMP:  51;

HOQUIAM        MOCLDY    50  48  93 NE6       30.12F
6HR MIN TEMP:  50; 6HR MAX TEMP:  56;

ASTORIA, OR    MOCLDY    47  45  93 CALM      30.08F
6HR MIN TEMP:  47; 6HR MAX TEMP:  55;

$$

WAZ019-023-024-040-518-519-311300-
CASCADE MOUNTAINS AND COLUMBIA GORGE

CITY           SKY/WX    TMP DP  RH WIND       PRES   REMARKS
STAMPEDE PASS  CLEAR     43  36  76 VRB3      30.18F
6HR MIN TEMP:  43; 6HR MAX TEMP:  50;

TROUTDALE, OR  CLEAR     50  46  86 CALM      30.08F
6HR MIN TEMP:  50; 6HR MAX TEMP:  63;

THE DALLES, OR CLEAR     48  37  65 E8        30.13S
6HR MIN TEMP:  47; 6HR MAX TEMP:  62;

$$

WAZ026-027-041>044-520-521-311300-
EAST SLOPES

CITY           SKY/WX    TMP DP  RH WIND       PRES   REMARKS
OMAK           PTCLDY    53  37  54 N13       30.17S
6HR MIN TEMP:  51; 6HR MAX TEMP:  60;

WENATCHEE      PTCLDY    55  40  56 NW8       30.16R
6HR MIN TEMP:  54; 6HR MAX TEMP:  66;

ELLENSBURG     CLEAR     45  38  76 CALM      30.16S
6HR MIN TEMP:  43; 6HR MAX TEMP:  60;

YAKIMA         CLEAR     45  36  70 W6        30.15S
6HR MIN TEMP:  45; 6HR MAX TEMP:  55;

$$

WAZ028-034-035-311300-
COLUMBIA BASIN

CITY           SKY/WX    TMP DP  RH WIND       PRES   REMARKS
EPHRATA        PTCLDY    47  36  65 NE5       30.14S
6HR MIN TEMP:  47; 6HR MAX TEMP:  60;

MOSES LAKE     CLEAR     45  33  63 N9        30.15R
6HR MIN TEMP:  44; 6HR MAX TEMP:  65;

PASCO          CLEAR     44  40  85 CALM      30.14S
6HR MIN TEMP:  43; 6HR MAX TEMP:  54;

HERMISTON, OR  CLEAR     41  36  82 CALM      30.13R
6HR MIN TEMP:  41; 6HR MAX TEMP:  55;

$$

WAZ036>038-311300-
NORTHEAST WASHINGTON

CITY           SKY/WX    TMP DP  RH WIND       PRES   REMARKS
SPOKANE GEIGER PTCLDY    48  35  60 E3        30.17R
6HR MIN TEMP:  48; 6HR MAX TEMP:  57;

SPOKANE FELTS  CLEAR     46  40  79 CALM      30.18S
6HR MIN TEMP:  45; 6HR MAX TEMP:  54;

FAIRCHILD AFB  CLEAR     45  33  61 NE5       30.16S
6HR MIN TEMP:  44; 6HR MAX TEMP:  56;

COEURDALENE,ID CLEAR     41  37  87 E5        30.17S
6HR MIN TEMP:  41; 6HR MAX TEMP:  54;

DEER PARK      CLEAR     42  35  76 MISG      30.18S
6HR MIN TEMP:  36; 6HR MAX TEMP:  49;

$$

WAZ029>033-311300-
SOUTHEAST WASHINGTON

CITY           SKY/WX    TMP DP  RH WIND       PRES   REMARKS
PULLMAN        CLEAR     38  32  79 CALM      30.19S
6HR MIN TEMP:  37; 6HR MAX TEMP:  47;

LEWISTON, ID   CLEAR     47  36  65 S3        30.17S
6HR MIN TEMP:  46; 6HR MAX TEMP:  60;

WALLA WALLA    CLEAR     49  36  61 SE5       30.13S
6HR MIN TEMP:  47; 6HR MAX TEMP:  52;

PENDLETON, OR  CLEAR     44  37  76 E8        30.13S
6HR MIN TEMP:  44; 6HR MAX TEMP:  56;

$$





000
ASUS46 KSEW 311110
RWRWA

WASHINGTON REGIONAL WEATHER ROUNDUP
NATIONAL WEATHER SERVICE SEATTLE WA
400 AM PDT TUE MAY 31 2016

NOTE:"FAIR" INDICATES FEW OR NO CLOUDS BELOW 12,000 FEET WITH NO
SIGNIFICANT WEATHER AND/OR OBSTRUCTIONS TO VISIBILITY.

WAZ505-507>509-311200-
SEATTLE, TACOMA, EVERETT, AND VICINITY

CITY           SKY/WX    TMP DP  RH WIND       PRES   REMARKS
EVERETT        PTCLDY    51  46  83 NE5       30.15F
BOEING FIELD   PTCLDY    56  46  69 CALM      30.15F
RENTON         PTCLDY    52  47  83 CALM      30.15S
SEATAC AIRPORT PTCLDY    54  45  71 NE3       30.15F
JBLM-MCCHORD   PTCLDY    46  46  99 CALM      30.14F
PUYALLUP       FAIR      46  46 100 CALM      30.14F
BREMERTON      MOCLDY    46  43  87 CALM      30.16F
JBLM-FT LEWIS  PTCLDY    45  42  89 SE3       30.14F
TACOMA NARROWS MOCLDY    55  44  66 NE3       30.14F
$$

WAZ001-503-506-510-514-515-311200-
NORTH INTERIOR

CITY           SKY/WX    TMP DP  RH WIND       PRES   REMARKS
BELLINGHAM     PTCLDY    48  46  93 CALM      30.15F
FRIDAY HARBOR  MOCLDY    44  42  93 CALM      30.17S
EASTSOUND      PTCLDY    48  45  87 CALM      30.14F
PORT ANGELES   MOCLDY    47  42  83 CALM      30.16F
EDIZ HOOK      FAIR      50  47  87 CALM      30.16F
PORT TOWNSEND  FAIR      45  45 100 CALM      30.16F
NAS WHIDBEY    PTCLDY    48  46  93 CALM      30.19F
ARLINGTON      PTCLDY    45  37  76 CALM      30.17F
BURLINGTON     CLEAR     50  48  93 CALM      30.16F
$$

WAZ020-022-039-040-504-511-512-311200-
SOUTHWEST INTERIOR

CITY           SKY/WX    TMP DP  RH WIND       PRES   REMARKS
SHELTON        MOCLDY    44  41  89 CALM      30.13F
OLYMPIA        MOCLDY    45  40  82 CALM      30.14F
CHEHALIS       FAIR      48  45  87 CALM      30.14S
KELSO          PTCLDY    50  41  71 CALM      30.15S
VANCOUVER      PTCLDY    53  41  63 CALM      30.09S
SCAPPOOSE, OR  PTCLDY    56  40  55 N3        30.08F
PORTLAND, OR   PTCLDY    57  42  57 CALM      30.09F
$$

WAZ021-516-517-311200-
WASHINGTON COAST

CITY           SKY/WX    TMP DP  RH WIND       PRES   REMARKS
FORKS          CLOUDY    46  44  93 NE3       30.14F
HOQUIAM        CLOUDY    51  48  89 E3        30.13F
ASTORIA, OR    MOCLDY    48  46  93 CALM      30.10F
$$

WAZ019-023-024-040-518-519-311200-
CASCADE MOUNTAINS AND COLUMBIA GORGE

CITY           SKY/WX    TMP DP  RH WIND       PRES   REMARKS
STAMPEDE PASS  CLEAR     44  37  76 NE3       30.19S
TROUTDALE, OR  CLEAR     52  48  86 CALM      30.09S
THE DALLES, OR CLEAR     49  37  63 S3        30.13S
$$

WAZ026-027-041>044-520-521-311200-
EAST SLOPES

CITY           SKY/WX    TMP DP  RH WIND       PRES   REMARKS
OMAK           CLEAR     53  37  54 NW9       30.17S
WENATCHEE      PTCLDY    57  39  51 NW6       30.15S
ELLENSBURG     CLEAR     46  38  73 NE5       30.16S
YAKIMA         CLEAR     47  36  65 W7        30.15S
$$

WAZ028-034-035-311200-
COLUMBIA BASIN

CITY           SKY/WX    TMP DP  RH WIND       PRES   REMARKS
EPHRATA        PTCLDY    49  36  61 CALM      30.14S
MOSES LAKE     CLEAR     45  32  60 N6        30.14F
PASCO          CLEAR     44  40  85 N3        30.14S
HERMISTON, OR  CLEAR     43  38  82 CALM      30.12S
$$

WAZ036>038-311200-
NORTHEAST WASHINGTON

CITY           SKY/WX    TMP DP  RH WIND       PRES   REMARKS
SPOKANE GEIGER PTCLDY    50  34  54 CALM      30.16F
SPOKANE FELTS  CLEAR     48  39  71 E5        30.18S
FAIRCHILD AFB  CLEAR     47  31  54 NE2       30.16S
COEURDALENE,ID CLEAR     43  34  70 NE3       30.16S
DEER PARK      CLEAR     37  34  89 CALM      30.18S
$$

WAZ029>033-311200-
SOUTHEAST WASHINGTON

CITY           SKY/WX    TMP DP  RH WIND       PRES   REMARKS
PULLMAN        CLEAR     38  33  82 CALM      30.19S
LEWISTON, ID   CLEAR     48  36  63 S5        30.17S
WALLA WALLA    CLEAR     48  37  65 E6        30.13S
PENDLETON, OR  CLEAR     45  37  73 SE8       30.13F
$$





000
ASUS46 KSEW 311010
RWRWA

WASHINGTON REGIONAL WEATHER ROUNDUP
NATIONAL WEATHER SERVICE SEATTLE WA
300 AM PDT TUE MAY 31 2016

NOTE:"FAIR" INDICATES FEW OR NO CLOUDS BELOW 12,000 FEET WITH NO
SIGNIFICANT WEATHER AND/OR OBSTRUCTIONS TO VISIBILITY.

WAZ505-507>509-311100-
SEATTLE, TACOMA, EVERETT, AND VICINITY

CITY           SKY/WX    TMP DP  RH WIND       PRES   REMARKS
EVERETT        CLEAR     51  46  83 N3        30.17F
BOEING FIELD   PTCLDY    57  49  74 CALM      30.16F
RENTON         PTCLDY    52  48  86 CALM      30.15F
SEATAC AIRPORT PTCLDY    57  44  62 NE8       30.16S
JBLM-MCCHORD   PTCLDY    45  44  95 SE2       30.15F
PUYALLUP       FAIR      46  46 100 CALM      30.16S
BREMERTON      MOCLDY    52  43  71 NE5       30.18S
JBLM-FT LEWIS  PTCLDY    48  43  82 E1        30.15F
TACOMA NARROWS PTCLDY    56  43  61 NE3       30.16S
$$

WAZ001-503-506-510-514-515-311100-
NORTH INTERIOR

CITY           SKY/WX    TMP DP  RH WIND       PRES   REMARKS
BELLINGHAM     PTCLDY    50  47  89 CALM      30.17S
FRIDAY HARBOR  PTCLDY    46  42  86 CALM      30.17F
EASTSOUND      PTCLDY    50  45  81 CALM      30.15F
PORT ANGELES   MOCLDY    46  41  82 W3        30.17S
EDIZ HOOK      FAIR      51  46  84 W3        30.17S
PORT TOWNSEND  FAIR      45  45 100 CALM      30.17F
NAS WHIDBEY    PTCLDY    48  46  93 SE5       30.20F
ARLINGTON      CLEAR     46  37  71 N3        30.19S
BURLINGTON     CLEAR     48  46  93 CALM      30.17F
$$

WAZ020-022-039-040-504-511-512-311100-
SOUTHWEST INTERIOR

CITY           SKY/WX    TMP DP  RH WIND       PRES   REMARKS
SHELTON        MOCLDY    46  42  86 CALM      30.14S
OLYMPIA        PTCLDY    45  39  79 CALM      30.16S
CHEHALIS       FAIR      46  45  93 CALM      30.14F
KELSO          PTCLDY    52  39  62 CALM      30.15F
VANCOUVER      PTCLDY    54  42  64 CALM      30.09F
SCAPPOOSE, OR  PTCLDY    59  40  49 N5        30.09F
PORTLAND, OR   PTCLDY    58  42  55 CALM      30.10S
$$

WAZ021-516-517-311100-
WASHINGTON COAST

CITY           SKY/WX    TMP DP  RH WIND       PRES   REMARKS
FORKS          MOCLDY    46  44  93 CALM      30.16F
HOQUIAM        CLOUDY    52  49  89 NE3       30.14F
ASTORIA, OR    MOCLDY    48  46  93 CALM      30.11F
$$

WAZ019-023-024-040-518-519-311100-
CASCADE MOUNTAINS AND COLUMBIA GORGE

CITY           SKY/WX    TMP DP  RH WIND       PRES   REMARKS
STAMPEDE PASS  CLEAR     46  36  68 CALM      30.19F
TROUTDALE, OR  CLEAR     54  49  83 CALM      30.09F
THE DALLES, OR PTCLDY    51  37  58 E6        30.13S
$$

WAZ026-027-041>044-520-521-311100-
EAST SLOPES

CITY           SKY/WX    TMP DP  RH WIND       PRES   REMARKS
OMAK           CLEAR     54  37  52 NW10      30.17S
WENATCHEE      PTCLDY    56  40  55 W6        30.15R
ELLENSBURG     PTCLDY    47  38  71 E6        30.16S
YAKIMA         CLEAR     48  37  65 W6        30.15S
$$

WAZ028-034-035-311100-
COLUMBIA BASIN

CITY           SKY/WX    TMP DP  RH WIND       PRES   REMARKS
EPHRATA        CLEAR     51  37  58 N6        30.14S
MOSES LAKE     CLEAR     47  35  63 N6        30.15S
PASCO          CLEAR     45  41  86 CALM      30.14S
HERMISTON, OR  CLEAR     49  40  71 SE7       30.12S
$$

WAZ036>038-311100-
NORTHEAST WASHINGTON

CITY           SKY/WX    TMP DP  RH WIND       PRES   REMARKS
SPOKANE GEIGER PTCLDY    49  33  54 CALM      30.17S
SPOKANE FELTS  CLEAR     46  39  76 NE3       30.18S
FAIRCHILD AFB  CLEAR     50  31  48 W2        30.16S
COEURDALENE,ID CLEAR     45  36  70 NE7       30.16S
DEER PARK      CLEAR     38  35  89 CALM      30.18S
$$

WAZ029>033-311100-
SOUTHEAST WASHINGTON

CITY           SKY/WX    TMP DP  RH WIND       PRES   REMARKS
PULLMAN        CLEAR     38  33  82 CALM      30.19F
LEWISTON, ID   CLEAR     51  36  56 CALM      30.17R
WALLA WALLA    CLEAR     48  38  68 E8        30.13S
PENDLETON, OR  CLEAR     48  37  65 SE7       30.14S
$$





    US Dept of Commerce
    National Oceanic and Atmospheric Administration
    National Weather Service
    1325 East West Highway
    Silver Spring, MD 20910
    Page Author: NWS Internet Services Team
Disclaimer
Information Quality
Credits
Glossary
Privacy Policy
Freedom of Information Act (FOIA)
About Us
Career Opportunities